Theta_e
338 337 338 337 335 335 335 335 336 335 335 335 335 332 331 332 331 330 329 330 330 329 327 328 330 332 333 333 333 334 335 335 335 335 333 333 331 325 323 325 327 329 330 330 330 330 330 330 329 328 328 325 325 327 328 328 326 326 325 320 317 316 314 317 319 319 317 316 316 317 317 318 318 318 318 319 319 319 319 319 319 318 319 319 318
338 338 338 338 336 336 335 334 336 337 336 335 335 334 332 332 331 330 330 330 330 329 328 328 330 332 333 332 333 333 334 335 335 335 334 333 333 328 324 324 326 327 329 330 330 329 328 329 330 329 329 327 325 326 326 326 326 328 327 325 323 321 318 317 316 316 316 316 314 313 315 318 318 316 316 318 319 319 319 318 318 318 318 318 318
338 338 337 337 336 336 335 335 336 337 336 335 336 335 333 332 331 331 331 331 331 330 328 328 330 331 331 332 332 332 333 334 335 335 334 334 333 332 328 325 325 326 326 328 329 329 328 327 329 328 328 328 326 326 325 324 325 328 328 327 327 325 325 324 321 318 315 314 313 311 314 315 315 315 316 317 318 318 318 318 318 318 318 317 317
338 338 336 337 337 336 336 337 337 336 335 335 336 335 334 334 333 332 332 332 331 330 329 329 330 331 331 332 331 331 333 334 334 335 334 333 333 333 332 330 328 326 326 326 328 329 329 328 328 329 328 329 328 327 326 324 322 326 328 327 327 327 327 326 325 323 318 315 312 312 314 314 314 314 314 314 314 315 315 315 317 318 317 318 317
337 336 336 338 338 337 338 338 337 336 336 336 335 335 334 334 333 333 333 332 331 331 330 330 330 331 332 332 332 332 332 332 333 334 334 333 331 330 332 333 332 329 328 327 326 327 329 329 330 330 330 330 329 328 328 326 324 325 327 326 324 324 326 327 327 326 321 316 313 313 314 314 314 312 311 311 310 311 313 313 315 317 317 317 317
336 336 336 338 338 338 338 337 337 337 336 336 336 335 335 334 333 333 333 332 332 331 331 331 331 332 332 333 333 333 331 331 332 334 334 334 331 329 329 329 331 331 331 329 327 326 327 329 330 331 331 331 330 329 329 329 328 326 327 326 324 323 325 327 327 326 323 318 315 314 313 313 314 312 311 311 309 310 314 313 313 315 317 317 317
336 336 336 337 337 337 337 337 337 336 335 336 336 336 336 335 333 333 334 333 333 333 333 333 332 333 333 333 333 333 332 332 332 331 333 334 333 332 330 327 327 329 330 331 330 328 327 327 328 329 330 331 331 331 330 330 329 328 328 328 327 326 326 327 327 327 324 320 317 315 314 314 313 313 312 312 308 308 313 313 313 314 314 316 317
336 336 337 337 337 337 337 337 337 336 335 335 336 336 336 335 334 334 334 334 333 333 332 333 333 333 333 333 333 332 332 332 331 330 330 332 332 333 333 331 329 328 328 331 333 332 329 327 326 327 328 329 329 330 331 331 331 330 330 330 329 328 327 327 327 327 326 323 321 317 314 312 312 312 312 313 311 309 311 310 313 315 313 315 316
336 337 337 337 337 337 337 337 337 336 335 335 335 335 335 334 334 334 335 334 333 332 332 332 332 333 333 333 333 332 332 332 331 331 330 331 330 331 331 331 331 331 330 332 332 332 331 329 328 328 327 327 327 328 329 330 331 331 331 331 330 331 330 329 328 327 326 325 324 320 315 314 314 314 313 313 313 312 311 310 312 313 313 314 314
336 337 337 337 337 337 337 336 337 336 336 335 334 333 332 333 333 332 333 334 332 332 331 331 332 331 332 332 332 332 332 331 331 330 330 330 330 329 329 330 330 331 331 332 332 332 333 332 331 331 330 329 328 328 328 329 330 331 331 331 331 331 331 331 330 329 327 327 325 322 320 320 320 317 316 316 316 315 314 313 313 313 313 313 312
337 337 337 336 336 336 336 336 336 336 336 335 332 330 328 330 331 329 331 333 333 332 331 331 331 331 331 331 331 331 331 330 330 329 329 329 328 328 329 329 329 331 331 332 331 332 333 333 332 331 330 330 329 328 328 329 330 331 331 331 330 330 330 330 331 331 329 329 328 325 322 323 323 322 319 319 319 318 317 317 316 315 314 313 310
336 336 336 335 336 335 335 335 336 336 335 334 332 330 327 329 330 329 330 333 333 333 332 332 332 332 331 330 330 331 330 330 330 329 329 328 327 327 328 328 329 330 330 331 331 332 332 332 332 330 330 331 330 329 329 328 328 328 328 329 329 329 330 330 330 331 331 330 330 328 325 323 323 324 323 322 322 321 320 319 317 316 315 313 309
336 335 335 335 335 335 334 334 335 335 335 333 331 331 329 330 331 330 332 333 333 333 332 332 333 332 331 330 330 330 330 331 330 328 327 326 326 326 325 326 327 328 328 329 330 329 331 331 331 331 331 330 330 330 330 328 328 328 328 328 329 329 329 329 330 330 330 330 330 330 328 325 323 324 325 324 323 322 321 319 318 317 316 315 312
334 334 335 334 334 335 334 334 334 334 334 333 331 331 331 331 332 332 332 333 333 332 332 332 331 331 331 330 330 329 330 330 328 327 326 325 325 324 325 323 323 323 323 326 328 328 329 329 330 331 331 330 330 331 330 329 328 327 328 329 329 330 330 330 330 329 329 329 329 330 330 329 326 323 324 324 324 322 321 320 317 317 317 317 317
333 333 334 335 335 335 334 334 333 333 333 333 332 331 331 331 332 332 332 332 331 332 331 331 330 330 330 330 329 328 329 328 326 325 325 325 323 324 324 323 322 321 320 323 326 326 327 328 329 330 331 331 331 330 330 328 327 324 325 326 328 329 330 330 330 330 329 329 330 330 330 330 329 326 324 323 323 321 320 320 318 317 318 318 318
333 333 333 333 334 334 333 333 333 333 333 333 333 332 331 331 332 332 333 332 331 331 331 331 331 330 329 330 328 327 329 328 325 324 324 323 322 322 322 322 322 322 322 323 325 326 327 328 329 330 331 331 330 330 329 328 327 326 325 324 325 327 328 329 330 330 331 330 330 330 330 329 329 329 326 325 324 322 321 320 318 317 317 318 319
332 331 331 332 333 333 332 331 332 332 332 333 333 333 332 332 331 331 331 331 331 330 330 330 331 331 330 330 328 327 328 327 325 325 323 322 321 321 321 321 321 321 321 323 324 325 326 326 328 328 329 330 330 329 329 328 327 326 325 324 324 326 326 327 328 328 330 330 330 330 330 329 329 329 328 327 326 324 323 322 321 319 318 319 320
329 328 328 329 329 330 329 329 329 330 330 331 330 331 331 331 331 331 331 331 331 331 330 330 330 331 331 331 330 329 327 327 325 324 322 321 319 319 319 319 319 319 320 321 322 321 322 323 324 325 326 328 328 328 327 324 323 322 323 324 325 326 326 325 326 326 326 328 329 330 330 330 330 329 329 329 328 327 326 325 324 322 321 320 321
327 327 327 326 326 326 326 326 325 326 327 328 328 328 327 328 330 331 330 330 331 331 330 330 330 331 331 331 330 330 328 327 326 324 322 320 318 318 318 318 318 318 318 319 320 319 319 319 321 321 322 324 325 325 324 321 320 321 323 325 326 327 327 326 326 326 326 326 327 329 329 330 331 331 330 330 329 328 328 327 326 325 324 323 322
326 326 326 326 325 325 325 325 325 324 325 326 326 327 327 328 331 331 330 330 330 331 330 330 330 331 330 330 329 329 329 328 327 325 322 319 317 316 317 317 317 317 317 317 318 318 317 317 318 318 319 320 321 322 321 320 318 319 322 323 324 325 326 326 328 328 328 328 328 329 329 328 330 331 331 330 329 329 329 329 328 328 327 326 325
325 325 326 325 325 324 325 326 325 323 324 325 326 327 327 328 330 330 330 330 330 330 330 329 330 330 330 329 329 328 327 328 328 325 322 319 316 316 317 317 317 316 315 316 316 317 316 316 317 317 317 317 318 318 318 317 315 314 316 319 321 322 323 324 327 328 328 328 328 328 328 329 329 329 329 330 330 329 329 329 329 329 329 328 328
325 325 324 324 324 324 325 325 325 324 324 325 326 326 327 328 329 330 330 330 330 330 329 329 329 329 329 328 328 326 325 325 325 323 320 319 317 317 316 317 317 316 314 313 314 314 314 315 315 315 316 316 316 315 314 313 311 310 311 313 316 317 319 321 324 325 326 326 326 326 326 328 329 329 329 329 329 329 329 329 329 330 330 330 329
324 323 323 323 323 324 325 324 323 324 324 325 325 326 327 328 330 330 329 329 329 329 329 329 329 328 327 326 325 323 322 321 321 319 318 318 318 317 317 316 316 316 314 312 312 312 312 312 312 313 313 314 314 314 312 310 308 308 309 310 312 313 315 318 321 323 324 325 325 324 325 326 328 329 329 329 329 329 329 329 329 329 329 330 330
322 322 322 322 323 323 323 323 322 323 323 323 324 325 326 328 330 329 329 329 329 329 329 328 327 326 324 323 320 319 319 318 318 316 316 317 318 318 316 315 315 315 313 312 311 311 311 311 311 311 312 312 313 312 312 310 308 307 308 308 309 309 310 313 316 320 322 323 324 325 325 326 326 326 327 328 329 329 329 330 329 329 329 329 329
321 320 321 322 322 322 322 322 322 322 322 323 323 323 324 326 328 329 329 328 328 328 327 326 324 322 320 317 315 315 314 313 314 314 314 315 317 316 315 314 314 314 313 312 311 310 309 308 309 310 310 312 312 311 311 310 307 306 307 307 308 308 308 309 312 314 316 317 320 323 324 325 325 325 325 326 327 327 327 328 328 328 328 328 328
320 320 320 321 321 322 322 322 322 322 322 322 321 322 322 322 324 325 325 325 324 323 323 322 320 318 316 314 312 312 311 311 311 312 312 314 316 316 316 315 314 313 313 312 311 310 308 306 306 308 309 310 311 310 311 310 308 307 307 306 306 307 307 307 308 309 310 312 314 317 319 321 322 324 324 324 324 325 325 325 325 325 325 325 326
319 319 320 320 320 320 320 320 320 321 321 321 320 320 320 319 320 321 320 319 319 318 318 318 317 316 314 312 311 311 312 311 311 311 311 313 314 315 315 315 313 313 313 312 312 310 307 306 305 305 307 309 310 309 309 309 308 308 308 306 305 306 306 306 307 307 308 309 310 311 313 315 316 318 319 320 321 322 322 321 322 322 322 322 322
318 318 318 319 319 318 317 317 318 319 319 319 318 318 317 317 317 317 317 316 316 315 315 315 315 314 314 312 311 312 313 313 312 312 312 312 314 315 315 315 314 313 313 312 311 309 307 306 305 304 305 307 308 308 307 308 308 309 310 307 305 305 305 305 306 306 306 307 307 308 308 309 310 311 313 314 315 317 317 318 318 318 318 317 317
318 316 316 316 317 316 314 314 315 316 316 315 315 314 314 314 314 314 314 314 314 313 312 312 312 313 314 313 312 313 314 313 313 313 312 312 313 314 314 314 314 314 313 313 312 310 308 307 306 305 304 305 306 306 306 306 307 309 310 308 305 305 305 305 306 306 306 306 306 306 307 307 307 308 308 309 309 310 311 312 313 314 314 314 313
317 316 315 314 314 313 312 311 311 313 314 313 312 312 312 312 312 312 311 311 311 311 311 311 311 313 314 314 313 313 314 314 314 314 313 313 312 312 313 313 314 314 314 314 313 311 308 307 306 304 304 304 304 305 305 303 303 306 308 307 305 304 304 305 305 306 306 305 306 305 306 306 306 306 307 307 307 307 308 308 309 309 310 310 310
316 315 315 314 313 313 311 311 310 311 311 311 311 311 311 310 310 310 310 310 310 311 311 311 312 313 314 314 314 314 314 313 313 314 314 314 312 312 313 314 315 315 315 314 313 311 310 308 305 303 303 303 303 304 304 302 300 303 306 305 303 303 304 303 303 304 305 305 305 305 305 305 305 306 306 306 306 306 306 307 307 307 308 309 309
316 315 315 314 314 313 312 312 310 310 310 311 311 311 311 310 309 310 311 311 310 310 311 311 312 313 313 314 313 313 314 313 313 314 314 314 314 314 314 314 315 315 315 315 314 311 309 308 306 303 303 303 303 304 304 302 300 301 303 304 302 303 305 305 300 299 301 301 302 302 303 303 304 304 304 305 305 306 306 306 306 307 307 307 308
317 315 314 315 314 313 313 313 312 311 311 311 312 311 311 311 311 311 311 312 310 311 310 311 312 312 312 312 312 312 313 313 313 313 313 314 314 314 314 314 314 314 314 314 313 311 308 307 306 304 303 304 303 303 304 304 303 302 302 302 302 302 304 306 303 298 297 298 298 298 298 299 299 300 300 301 301 302 303 303 304 305 305 305 306
317 315 314 315 315 314 314 315 315 313 312 312 313 313 313 312 312 312 312 312 311 311 311 310 311 312 312 311 310 311 312 312 312 312 312 312 313 313 313 313 313 312 313 313 313 312 310 307 306 304 304 304 304 303 303 304 304 303 302 302 302 302 302 304 305 300 296 296 297 296 297 297 297 297 297 297 298 298 298 299 300 300 301 302 303
316 316 316 315 315 315 315 315 316 316 314 314 314 315 315 315 314 314 314 313 313 313 312 311 310 311 311 311 311 310 311 312 311 311 311 311 311 312 312 312 312 311 311 313 313 313 311 309 307 305 305 305 305 304 303 304 304 304 303 303 303 303 303 303 304 302 299 298 297 297 297 297 297 297 297 297 297 297 297 297 297 297 298 298 299
316 315 316 316 315 315 315 315 315 315 316 315 315 315 315 315 315 316 315 315 315 315 314 313 312 312 312 312 312 311 311 312 312 312 311 311 311 311 311 311 310 310 311 312 313 313 311 310 308 307 307 307 306 305 304 304 305 304 304 304 304 304 304 304 303 303 301 300 300 300 299 299 298 297 297 297 296 296 297 297 297 297 297 297 297
318 316 316 316 315 315 314 314 314 314 315 316 315 315 315 315 315 316 316 316 316 316 316 315 314 314 314 314 314 313 312 313 314 313 312 312 311 312 312 311 310 310 311 312 312 312 312 311 309 308 308 307 306 306 305 306 306 306 306 305 305 305 306 306 305 303 302 302 302 301 300 300 299 298 297 297 296 296 296 296 296 296 296 297 297
320 319 317 316 316 315 315 314 314 314 315 316 316 317 317 318 318 318 318 318 317 316 316 316 316 316 315 315 315 315 314 314 314 314 313 312 312 312 312 311 310 310 311 312 313 313 312 312 311 310 309 308 308 308 306 306 307 308 307 307 307 306 307 306 306 305 303 303 302 301 300 300 299 299 298 297 297 297 296 296 296 296 296 296 296
321 320 319 318 317 316 316 316 315 316 317 318 319 318 319 320 320 320 320 320 319 318 318 317 316 316 316 316 316 316 315 315 315 315 314 314 313 312 311 311 310 310 310 312 312 313 313 312 312 312 311 310 310 309 307 306 308 308 307 308 308 308 307 307 306 306 305 303 302 301 300 300 300 299 299 298 299 298 297 296 296 297 296 296 297
321 321 320 319 318 318 318 318 319 319 319 319 318 318 319 320 320 320 321 321 321 320 320 319 318 318 317 317 316 316 316 315 315 315 315 315 314 313 312 311 310 310 310 311 312 313 313 313 313 312 312 311 310 310 309 308 309 308 307 307 308 308 307 307 306 306 305 304 303 302 301 301 301 301 300 300 300 299 298 297 298 299 298 297 297
321 322 321 320 319 319 320 320 320 318 317 317 316 316 317 318 318 318 318 320 320 320 320 320 319 319 318 317 317 317 316 316 315 314 314 314 314 314 313 313 310 310 310 310 311 312 313 313 313 312 312 312 311 311 310 309 309 308 307 307 307 307 306 306 306 306 305 303 303 302 302 301 302 302 301 301 301 300 300 300 301 301 298 296 296
321 321 321 320 320 320 320 320 319 316 315 314 314 315 316 315 315 315 316 318 318 320 320 318 318 319 319 319 319 319 317 316 315 315 313 312 312 311 312 313 311 310 310 310 310 311 312 312 312 312 312 312 311 310 309 309 308 307 307 307 306 306 306 306 306 306 305 303 302 302 301 301 302 302 302 301 301 301 301 302 302 300 296 295 295
320 321 321 320 320 320 320 320 318 315 314 314 314 315 315 314 313 313 315 316 317 318 319 318 318 319 319 319 321 320 319 318 317 317 316 315 313 311 310 310 310 309 309 310 310 310 311 311 311 311 311 310 310 309 308 308 308 307 307 306 306 305 306 305 306 305 304 303 302 302 301 301 301 301 301 301 301 302 302 301 300 297 295 294 295
320 320 321 320 320 320 319 318 317 315 314 314 314 314 314 314 313 312 314 316 315 314 316 317 317 317 317 318 319 319 319 319 318 318 317 317 316 315 311 308 307 307 307 308 309 310 310 310 310 310 310 309 308 308 308 307 306 306 306 306 305 305 305 305 305 305 304 302 301 301 301 301 301 300 301 301 301 301 301 300 298 297 296 294 294
320 319 319 319 319 318 317 318 317 317 317 316 315 314 315 314 313 313 314 314 313 312 315 317 316 317 317 317 318 318 318 317 316 317 318 316 316 315 313 308 305 305 304 304 305 306 307 308 308 308 309 308 307 307 307 305 304 304 305 305 305 304 304 304 303 303 302 301 300 300 301 301 300 300 301 301 301 301 301 300 299 298 296 295 294
320 319 319 319 318 318 318 318 318 319 319 318 316 315 314 313 313 313 314 314 314 315 315 315 315 315 315 316 317 317 316 315 314 315 316 315 313 311 310 306 304 304 303 302 302 303 303 305 306 308 308 306 306 306 305 302 302 303 303 303 303 303 302 302 301 301 301 300 301 300 301 300 300 300 300 300 300 300 300 299 299 298 297 295 295
321 320 319 319 319 318 319 319 319 320 319 319 317 314 312 313 312 312 313 314 314 315 314 313 313 313 313 313 315 314 313 312 312 311 312 313 310 307 307 306 305 305 303 302 302 303 303 304 305 306 306 304 303 303 302 301 301 302 301 301 301 300 300 301 301 301 300 301 301 300 300 300 299 299 300 300 300 300 300 299 299 298 297 296 295
320 320 319 319 319 319 320 320 320 320 319 319 317 313 312 312 311 310 313 314 313 313 313 312 312 312 312 313 313 312 310 309 309 308 309 310 310 307 307 306 305 304 302 300 300 301 301 301 302 302 302 301 300 300 300 299 299 299 299 299 299 300 300 301 301 300 300 300 300 300 300 300 299 299 300 300 299 300 299 299 299 298 298 297 296
320 319 319 319 319 320 320 320 319 319 320 319 316 313 313 312 309 310 313 312 311 312 311 311 311 310 309 310 311 311 308 307 307 306 306 308 309 308 307 306 304 302 300 299 299 300 299 300 300 299 299 299 298 298 297 297 296 296 296 298 299 299 300 300 300 299 299 299 299 299 299 300 300 299 299 299 299 299 299 299 299 299 298 297 296
320 320 319 319 319 319 319 319 318 318 318 317 315 314 313 310 309 312 312 311 311 311 310 310 309 307 307 307 309 309 307 305 305 304 304 306 308 307 307 306 306 305 302 300 299 299 299 299 299 298 298 297 297 296 296 295 294 294 294 296 298 298 298 299 299 299 299 299 299 299 299 299 299 299 299 299 299 299 299 299 299 299 298 298 297
320 319 319 319 319 318 318 317 317 317 316 315 315 314 311 308 309 312 311 311 311 310 309 309 307 306 305 306 306 306 306 305 304 304 304 306 308 308 307 307 307 306 304 302 301 301 301 300 300 299 298 298 297 297 296 296 295 294 294 296 297 298 298 298 298 298 299 299 299 299 299 299 299 298 298 299 299 299 299 299 299 299 298 298 298
Wind_Speed
8 9 9 8 6 5 6 7 7 7 7 6 5 5 5 5 6 5 5 5 5 5 6 7 7 6 5 5 5 5 5 4 3 4 5 6 6 5 6 7 5 4 4 5 3 2 3 2 2 2 2 3 2 2 3 4 6 7 7 8 9 9 8 7 6 5 4 5 5 4 4 5 5 5 5 6 6 6 6 6 6 7 6 6 7
8 8 8 7 6 5 6 7 8 9 8 6 5 5 5 5 6 5 5 4 4 5 6 8 8 6 6 5 5 4 4 4 3 3 4 6 6 5 6 6 6 5 4 4 3 4 4 3 2 2 2 1 2 1 2 4 4 4 5 6 7 8 8 8 7 6 5 4 3 3 4 4 3 3 4 5 5 5 5 5 5 6 6 6 7
7 7 8 7 7 6 7 8 9 8 7 6 6 5 5 5 5 5 5 4 4 4 6 8 8 6 6 5 4 4 4 3 3 3 4 5 6 5 5 5 5 4 4 3 2 3 4 4 4 3 2 1 1 2 0 3 2 1 2 3 4 6 6 7 8 7 5 5 4 3 2 3 2 2 3 4 4 4 4 4 5 5 6 6 6
7 7 8 8 8 8 7 8 8 8 7 7 7 6 5 5 5 5 5 4 4 4 4 7 7 5 5 4 4 4 4 3 3 2 3 4 5 5 4 3 3 2 2 3 2 2 3 4 5 4 3 2 2 2 1 0 0 0 2 3 3 3 4 4 6 7 5 4 4 3 1 1 1 1 2 2 3 3 3 4 5 5 5 5 5
10 8 9 8 8 8 7 8 8 8 8 8 8 7 6 6 6 5 5 4 5 4 4 5 5 4 4 4 5 5 4 4 3 3 3 3 4 5 4 3 1 1 1 1 1 2 2 3 3 4 4 4 2 1 2 2 2 2 2 3 3 3 3 3 4 5 5 3 3 3 2 1 1 1 1 1 2 2 2 3 4 5 5 4 4
10 8 8 7 7 7 7 7 8 9 10 10 9 7 7 8 8 6 5 4 4 4 4 4 4 4 4 4 5 4 3 3 3 3 3 3 3 5 5 4 2 1 1 2 1 1 2 3 2 2 4 4 3 1 2 3 3 2 3 3 4 3 3 4 3 4 5 4 3 2 2 2 2 2 2 1 1 2 2 3 4 4 5 4 4
9 8 8 7 7 7 6 6 8 10 10 10 9 8 8 8 8 8 6 4 4 4 3 4 3 4 4 3 4 4 3 3 2 2 2 3 2 3 4 5 4 3 2 1 2 1 1 2 3 2 2 3 2 2 2 3 3 2 3 3 4 4 4 5 4 4 4 4 3 3 3 2 3 4 3 2 2 1 2 2 3 4 5 5 4
9 9 8 7 7 6 6 6 8 9 10 10 9 9 9 8 8 8 6 5 5 4 3 3 3 4 4 3 4 4 3 3 2 2 2 2 2 1 1 3 3 4 3 2 2 4 3 3 3 3 3 2 1 2 2 3 4 4 4 4 5 5 5 4 3 3 4 3 3 3 3 2 2 4 4 5 4 2 2 3 3 3 4 5 5
9 9 8 7 6 6 6 6 7 8 9 10 10 8 8 8 8 7 6 5 5 4 4 3 3 3 3 4 4 4 3 3 3 2 2 2 1 1 0 1 2 2 2 2 2 3 5 5 4 3 3 3 3 3 3 3 3 3 4 4 6 6 5 4 4 3 4 4 3 2 2 1 2 3 5 6 4 3 4 3 4 4 4 4 4
9 9 8 7 6 5 5 6 7 8 9 10 9 9 9 9 8 8 7 6 5 4 5 4 4 4 4 4 3 3 3 3 2 2 2 1 1 1 1 1 0 0 1 1 1 2 4 6 5 3 1 2 3 3 4 4 3 3 3 4 5 6 6 7 6 5 4 4 4 3 2 2 2 2 4 5 6 6 5 4 4 4 4 5 5
8 8 7 7 6 6 5 6 6 7 8 9 11 10 12 11 9 8 8 7 5 5 4 4 5 5 5 4 3 3 3 2 2 2 2 2 2 1 1 1 1 2 2 1 1 1 3 4 4 1 0 2 3 2 4 5 5 4 3 4 4 5 7 9 9 8 7 6 6 5 4 4 4 3 4 5 6 6 5 5 5 5 5 6 6
7 7 7 7 6 6 6 6 6 7 7 9 14 13 12 11 9 9 9 8 6 6 6 6 6 6 6 5 4 4 3 3 3 3 2 2 2 2 2 2 2 3 4 4 2 2 3 4 3 2 2 4 5 4 2 3 4 5 4 5 5 6 6 7 9 9 9 10 9 8 6 6 6 5 5 5 6 6 6 7 7 7 7 7 6
7 7 7 7 7 7 7 7 6 6 5 7 13 13 11 9 8 8 8 7 7 7 7 7 7 7 6 6 5 4 3 4 4 3 3 2 3 3 3 3 3 4 5 5 4 3 3 3 4 4 3 3 5 5 3 3 1 2 3 4 5 6 6 6 8 9 9 11 11 11 10 8 6 6 7 7 7 7 8 8 8 8 8 8 7
7 7 7 7 7 7 7 7 5 5 5 6 11 14 11 7 7 8 7 7 6 6 8 8 8 7 7 7 6 4 4 4 4 4 3 3 3 3 3 4 4 4 5 5 4 4 3 3 3 3 3 3 3 3 2 5 4 2 0 2 3 5 6 6 7 8 9 10 11 12 13 11 9 7 7 7 7 7 8 8 8 8 8 8 8
7 7 7 6 6 7 7 7 6 5 6 6 9 13 13 9 7 8 8 7 6 6 8 7 7 7 7 5 4 4 5 5 6 6 5 5 4 3 3 4 4 4 5 5 4 4 4 3 3 3 3 3 2 3 2 6 4 3 2 1 2 4 5 5 7 8 9 10 11 12 12 12 11 10 8 7 7 6 7 8 8 8 8 9 9
8 7 7 6 5 6 6 6 6 5 5 6 7 9 11 11 8 7 8 8 7 7 7 7 7 7 6 4 5 5 4 5 8 7 6 6 5 4 4 5 5 4 5 4 3 4 4 4 4 4 3 3 3 3 5 8 6 5 4 3 2 3 4 4 5 7 8 10 11 11 11 11 11 12 11 9 8 7 6 7 7 8 9 9 10
9 8 8 7 6 5 5 5 5 5 5 5 5 6 8 9 8 8 8 7 7 7 7 8 8 8 6 3 4 4 3 7 9 7 5 5 5 6 6 6 5 5 5 5 5 5 6 6 6 6 5 5 4 4 5 6 5 4 4 3 2 3 3 3 5 6 8 9 10 11 12 12 12 13 14 12 11 9 8 8 7 8 8 9 10
8 8 8 8 7 6 4 4 4 4 4 4 5 5 6 7 8 9 8 7 7 8 8 8 8 8 7 4 1 2 6 10 7 5 5 6 6 6 7 6 6 6 6 7 6 7 7 7 8 8 8 8 7 7 7 5 3 3 4 4 4 4 3 4 5 5 7 8 10 11 12 13 13 14 15 16 15 13 12 11 10 9 9 10 10
8 8 8 8 7 6 4 3 3 3 4 4 5 5 5 6 7 8 8 8 8 8 8 8 8 8 7 4 1 2 7 8 5 5 6 5 6 7 8 8 8 8 8 8 8 9 8 8 8 9 9 10 10 10 10 9 7 6 5 6 5 5 4 4 5 6 6 7 8 10 12 13 14 14 15 17 18 17 17 16 14 12 12 11 11
8 8 9 8 6 5 4 3 3 3 4 4 5 5 5 6 6 6 6 7 7 7 7 8 8 7 6 5 3 4 5 4 3 6 6 5 7 8 9 9 9 9 9 9 9 9 9 9 9 9 10 10 11 10 10 9 9 8 7 6 6 5 4 2 3 3 4 5 5 6 9 10 12 13 14 15 17 18 19 19 18 16 14 14 13
7 8 8 7 6 5 5 5 4 4 4 4 5 5 5 6 7 6 6 6 5 5 7 7 6 7 7 6 6 6 6 4 4 6 6 6 6 7 9 9 9 9 8 8 9 8 9 9 8 9 10 10 10 10 10 9 9 9 9 7 6 5 5 4 4 3 2 2 2 2 3 4 6 9 12 14 16 17 17 19 19 17 16 15 14
7 8 7 7 6 5 6 6 6 5 4 5 5 5 5 6 6 5 5 5 4 5 6 6 6 7 8 7 7 7 7 6 6 6 6 6 6 7 9 9 8 8 8 8 8 8 9 9 9 9 9 9 9 10 10 10 9 9 9 8 7 6 6 6 5 3 3 3 4 3 3 3 2 3 8 11 13 13 13 14 15 16 16 16 16
8 8 7 7 6 7 8 8 6 5 5 5 5 5 5 5 6 6 5 5 5 5 5 5 6 7 7 7 7 6 6 6 6 6 5 6 7 7 9 9 9 9 7 7 8 8 8 8 9 9 9 9 9 9 10 10 9 9 8 7 7 7 7 6 4 4 4 4 4 4 4 3 3 2 5 8 7 7 8 10 11 13 14 16 17
9 8 8 7 7 8 8 7 6 5 5 5 5 6 5 5 6 6 5 5 5 5 6 6 7 7 6 5 4 4 4 4 5 5 5 7 7 7 8 9 9 9 8 7 8 8 8 8 8 9 9 9 9 9 10 10 9 9 8 7 7 7 7 7 5 4 4 4 4 4 4 4 3 3 5 6 4 3 5 7 9 10 11 14 16
9 9 8 8 8 8 7 7 7 6 6 6 6 6 6 6 7 8 7 7 6 6 7 7 7 6 5 4 4 4 4 3 4 4 5 7 8 7 8 8 7 8 8 7 7 7 8 8 8 9 9 9 9 10 10 10 11 11 10 9 9 8 9 8 7 6 5 4 4 4 4 4 4 3 4 5 5 4 3 2 3 5 7 9 12
9 9 8 8 8 8 8 8 7 7 7 7 7 7 6 6 8 9 9 8 7 7 7 7 6 5 5 5 5 5 5 5 4 5 6 7 8 7 7 7 6 7 7 6 5 6 7 8 8 8 8 9 9 9 9 10 11 12 12 11 11 10 10 10 9 8 6 5 5 4 4 4 4 4 3 4 4 4 4 3 3 2 3 4 6
9 9 8 9 9 9 9 8 8 7 8 7 7 6 6 6 7 8 8 7 7 7 6 6 5 5 6 6 7 7 6 6 5 5 6 6 7 7 7 6 5 5 5 5 5 6 6 7 8 8 7 8 8 8 8 8 10 11 10 11 11 10 10 10 9 9 8 7 6 5 5 4 4 4 4 3 3 3 3 3 2 3 3 4 5
9 8 8 8 9 9 9 9 9 8 8 7 6 6 6 6 7 7 7 6 6 6 5 6 6 6 7 7 8 8 7 7 6 6 6 6 7 8 7 6 4 4 4 4 5 5 4 5 7 7 6 6 6 6 6 6 8 9 7 8 10 9 9 8 8 8 8 8 8 7 6 6 5 5 5 4 4 3 3 3 3 4 5 6 7
7 7 8 8 9 9 9 9 9 8 8 7 6 6 6 7 7 7 6 6 6 6 6 6 6 6 7 7 8 9 8 8 8 8 7 7 7 6 5 4 3 3 4 3 4 5 4 4 5 6 6 5 5 4 4 4 6 7 5 6 7 7 7 6 6 7 7 7 7 7 6 6 6 5 5 5 4 3 3 3 3 4 5 7 8
7 7 8 8 8 9 9 9 9 9 8 7 7 7 7 7 7 7 7 6 7 6 6 6 6 6 7 7 8 8 8 8 8 8 8 7 6 5 3 3 2 2 4 5 4 4 5 4 5 5 5 4 4 4 4 3 4 6 4 3 4 4 5 5 5 5 5 5 5 5 6 5 5 5 5 5 4 4 3 3 3 3 4 5 7
7 7 7 8 8 8 9 9 9 9 8 8 8 8 8 8 8 8 7 7 7 7 7 7 6 6 7 7 7 7 7 7 7 7 7 7 7 6 6 5 4 4 5 5 4 3 3 4 4 4 4 4 3 3 4 2 3 4 3 2 1 3 4 5 5 5 5 5 5 5 6 6 6 6 6 7 7 6 6 6 5 5 6 6 7
7 8 8 8 8 9 9 9 9 9 8 8 8 8 8 8 8 8 8 7 7 7 7 7 6 7 6 6 6 6 5 5 6 6 6 6 6 7 7 7 6 5 4 5 6 5 4 3 4 4 3 3 3 3 3 2 3 4 3 1 2 3 3 4 7 6 5 6 7 7 8 8 9 9 9 10 10 10 10 10 10 10 10 10 10
7 8 8 8 9 9 9 9 9 9 8 8 8 8 8 8 7 7 7 6 7 7 6 6 6 6 5 5 5 5 4 4 5 5 5 5 5 5 5 5 5 4 3 5 7 7 5 3 3 3 3 2 2 3 3 2 1 2 2 2 2 2 1 3 6 7 6 6 7 7 9 10 11 11 12 12 13 13 14 15 15 15 15 15 14
7 7 8 9 9 9 9 9 9 9 8 8 7 7 7 7 7 6 6 6 6 6 6 6 5 5 4 4 5 4 3 3 3 3 4 4 4 5 4 4 4 4 3 4 5 6 6 5 5 4 3 2 2 3 2 2 1 0 1 2 2 2 3 2 3 6 8 7 7 8 9 10 11 12 13 13 14 14 15 15 16 17 17 18 18
8 7 8 9 9 9 8 8 8 8 8 8 7 7 7 7 6 5 5 5 5 5 5 5 5 5 4 4 4 3 3 3 2 2 3 3 3 3 3 3 4 3 2 2 3 4 6 6 6 5 4 3 2 2 2 2 0 1 1 1 2 2 4 3 3 5 8 8 7 8 9 10 10 11 12 13 13 14 14 15 16 17 18 18 19
9 9 9 9 10 10 9 9 8 8 8 8 7 6 6 5 5 5 4 4 4 4 4 4 4 5 4 4 4 4 3 3 3 2 3 3 2 3 3 3 4 4 3 2 1 3 5 5 4 4 4 3 3 2 1 2 2 1 1 2 2 2 4 5 4 5 9 13 12 12 14 13 13 13 12 12 12 12 13 14 15 16 17 18 19
9 10 10 10 11 11 10 10 9 9 8 8 7 7 6 5 5 4 4 4 4 4 4 4 4 4 5 5 5 5 5 4 4 3 3 4 3 3 3 3 4 4 3 2 1 2 3 4 4 3 3 3 3 1 1 2 2 2 2 3 4 4 4 6 6 6 10 14 14 16 18 17 16 17 15 14 13 11 12 13 14 15 16 17 18
8 10 10 11 11 11 11 11 10 10 9 8 8 7 6 5 4 4 3 3 4 4 5 5 6 6 6 6 6 6 7 6 6 5 5 5 4 4 4 4 3 4 4 3 3 3 3 3 4 4 3 3 2 2 1 2 3 3 4 5 5 5 5 7 7 6 6 8 11 14 16 14 16 18 18 17 15 13 14 15 15 14 15 16 17
9 10 11 12 12 12 12 12 12 11 11 10 9 7 6 5 4 2 1 2 3 4 5 6 6 7 8 8 9 9 9 8 8 7 7 7 6 6 6 5 4 4 5 5 4 4 3 3 4 3 3 3 2 2 1 1 3 3 4 8 8 7 7 9 9 8 6 8 11 14 16 16 17 18 18 18 16 15 17 17 16 15 15 15 16
9 10 12 13 13 13 14 14 14 14 12 11 9 8 5 4 3 3 2 2 3 4 6 7 8 8 9 9 10 10 10 10 10 10 9 9 8 8 8 8 6 6 6 6 6 7 6 6 6 5 5 4 3 3 3 2 3 4 5 8 10 10 10 11 11 9 7 9 11 13 15 16 15 15 16 16 14 16 18 17 14 15 17 17 18
10 10 11 13 14 14 15 15 16 17 16 13 12 10 7 4 2 3 4 4 5 6 7 8 8 9 9 10 11 11 11 12 12 12 12 12 12 10 9 9 9 8 8 8 8 8 9 9 8 7 7 8 6 5 5 4 4 6 6 7 10 11 12 12 12 10 8 9 12 14 15 14 13 13 14 12 11 15 17 13 9 13 19 20 19
11 11 12 14 15 16 16 15 17 19 20 18 17 15 12 6 2 3 5 5 6 7 8 10 10 9 9 9 9 11 13 14 13 13 14 15 16 14 12 10 9 9 9 9 9 9 8 9 10 8 8 9 7 5 6 5 4 6 7 9 11 12 13 13 13 11 8 8 12 16 17 15 13 14 13 11 11 13 12 8 10 16 20 19 18
13 14 15 16 17 17 17 17 17 19 20 19 19 21 19 14 9 9 8 6 7 8 8 10 11 9 8 8 7 9 12 12 11 12 13 13 15 16 16 14 12 11 11 10 9 9 8 9 9 8 7 7 5 5 6 5 5 7 8 9 11 12 12 13 14 13 10 10 14 19 19 15 13 14 14 13 12 12 10 12 17 20 19 17 17
16 15 16 18 18 18 18 17 19 20 20 20 21 22 22 21 21 17 11 7 8 9 9 9 10 9 8 8 7 7 8 8 8 9 11 11 11 13 16 18 18 16 14 12 9 7 6 7 8 8 7 6 6 6 5 5 7 9 10 10 11 11 12 14 15 15 13 14 17 20 19 16 13 14 15 13 12 13 13 16 20 20 19 18 18
18 18 19 20 20 19 18 18 19 20 22 24 24 23 23 24 24 19 11 8 9 9 8 8 7 6 5 5 4 4 5 6 6 5 5 8 9 11 14 18 20 19 17 16 13 9 6 6 7 7 6 5 6 5 4 5 8 10 11 12 12 12 14 15 16 18 19 18 17 17 18 17 14 14 15 14 13 13 14 16 19 21 21 21 18
17 19 20 21 21 19 19 19 19 18 19 21 22 22 25 25 22 17 12 10 9 8 8 7 5 4 3 2 2 1 0 1 2 2 3 4 6 8 10 14 15 15 14 13 11 9 7 5 5 6 3 3 5 3 4 7 8 9 11 12 13 14 16 18 19 21 20 17 14 14 16 16 14 14 16 16 14 14 14 16 19 21 22 21 18
16 17 19 21 20 20 20 20 19 18 18 20 20 21 23 23 20 16 12 11 9 7 7 6 4 3 2 2 2 2 1 1 2 3 3 3 3 4 7 9 9 10 11 11 9 8 5 4 3 3 2 4 4 4 5 6 6 7 10 12 14 15 17 18 18 18 17 15 12 12 15 17 15 15 16 15 15 16 16 16 19 21 21 20 19
15 16 18 19 20 21 20 19 19 18 17 20 22 23 23 22 19 16 13 11 10 8 7 6 5 4 4 3 3 3 2 1 0 1 4 5 5 6 9 9 8 9 11 11 10 9 8 7 6 6 6 8 8 9 9 9 9 9 10 12 14 15 15 16 16 16 15 13 11 12 16 17 16 16 17 16 16 18 17 17 18 20 20 19 18
15 16 17 17 18 19 18 17 17 16 16 20 22 23 24 23 20 17 14 13 11 10 9 7 6 6 6 6 5 4 3 3 3 5 7 8 7 7 9 8 7 7 7 9 8 8 9 8 8 9 9 10 11 12 13 13 14 12 11 12 14 14 14 16 16 16 15 14 13 14 17 18 16 16 18 17 17 19 19 18 17 16 17 17 16
16 16 16 17 18 18 17 16 15 14 15 18 22 24 25 25 22 17 14 13 11 10 10 8 7 7 8 7 7 5 5 5 5 6 8 8 6 6 7 7 6 5 5 6 6 7 7 7 8 9 10 11 13 14 14 15 16 14 12 13 13 14 15 15 16 16 16 16 14 11 13 16 16 16 18 19 18 18 17 16 13 13 15 17 15
16 17 16 17 18 20 20 17 15 16 16 20 24 26 26 26 22 16 14 13 12 11 10 9 8 8 8 7 7 6 5 5 5 4 5 6 4 4 4 5 5 5 4 4 3 3 4 5 6 8 9 11 13 13 13 15 17 15 13 13 13 13 15 16 16 16 14 13 10 7 10 15 15 15 16 16 15 14 14 13 13 13 16 17 16
Wind_Direction
180 183 188 193 186 181 188 184 183 184 180 179 174 168 165 169 169 160 159 157 157 167 171 172 171 166 159 148 144 143 143 134 116 111 99 102 99 86 99 119 138 142 117 105 107 123 133 142 124 128 95 50 60 22 9 20 15 19 40 46 39 34 31 41 52 51 55 67 81 82 84 84 76 77 80 73 68 70 70 70 76 74 68 68 64
182 182 183 180 177 179 186 188 187 185 179 171 162 162 163 163 164 158 153 153 153 163 167 166 166 161 154 147 145 142 141 140 120 112 106 106 108 101 97 110 132 139 128 116 121 128 124 134 138 143 153 67 58 61 0 353 8 27 43 44 42 37 31 30 30 25 25 39 57 66 82 95 92 91 93 92 84 78 79 77 80 80 75 74 70
185 180 176 171 175 183 189 188 185 182 172 163 156 155 159 157 158 151 142 140 137 151 163 164 164 161 159 154 148 144 141 145 135 125 120 110 108 110 99 97 116 133 138 128 119 134 131 134 144 150 163 152 109 140 226 321 347 26 19 18 35 39 30 25 22 16 7 4 14 37 74 99 102 104 100 109 110 98 102 101 93 88 81 77 75
190 179 176 173 177 184 189 185 177 173 165 158 152 147 150 147 146 142 131 127 125 133 151 162 162 156 157 149 131 121 117 123 116 120 134 125 115 114 110 100 100 110 134 144 150 168 160 156 161 158 152 145 146 165 188 281 342 220 292 322 352 11 9 9 13 11 359 345 346 0 39 89 83 108 114 127 135 117 118 121 109 99 92 88 83
194 184 181 179 183 185 185 184 175 168 162 155 150 148 150 145 141 137 130 123 120 126 136 150 154 142 139 132 115 110 116 122 114 110 115 134 154 140 125 123 105 54 44 114 156 193 213 198 180 170 162 156 153 179 180 161 152 174 237 292 318 324 326 328 346 1 359 339 322 326 340 345 1 12 24 110 138 126 121 130 125 116 109 107 101
203 194 188 185 188 186 185 186 176 169 161 154 153 156 157 152 150 143 137 132 122 127 128 133 144 136 127 120 114 115 121 126 116 111 100 107 158 159 153 165 163 138 356 342 348 185 214 234 224 200 179 168 162 166 171 175 180 177 204 275 322 317 305 304 308 344 0 353 324 292 304 318 316 321 327 336 141 134 135 144 143 140 135 130 123
208 196 188 185 186 186 188 185 174 169 161 157 158 163 162 155 152 147 147 146 132 129 128 127 132 120 108 102 107 111 110 109 94 87 94 92 120 147 178 196 186 173 183 278 318 299 241 254 252 249 216 185 181 185 187 190 206 215 212 267 312 323 317 308 294 312 343 352 340 303 286 290 305 318 323 318 299 205 178 175 162 161 155 149 147
198 193 187 185 185 186 186 180 171 166 161 159 162 166 162 150 147 147 148 153 148 140 135 131 126 113 107 98 97 103 100 96 83 62 58 60 82 110 167 190 193 207 216 205 278 297 302 288 271 273 269 267 249 207 213 206 210 227 229 256 286 307 319 316 306 296 297 308 319 313 299 273 287 301 302 305 294 244 229 207 183 186 176 166 164
187 187 185 182 180 180 180 176 172 166 164 163 162 167 160 145 144 145 143 158 166 156 154 154 144 134 122 111 100 100 95 79 68 58 40 28 31 6 41 152 188 213 232 220 238 284 296 300 316 316 298 304 300 279 264 244 229 233 228 241 261 282 294 298 312 306 298 297 277 280 295 259 269 274 278 288 285 263 250 233 211 203 192 188 180
179 179 177 174 169 170 171 171 169 165 169 163 152 167 175 159 153 155 151 158 164 158 169 173 162 154 140 130 119 107 98 81 63 53 46 33 22 355 357 23 208 112 185 226 242 265 285 301 322 342 17 2 327 292 278 272 268 262 251 247 249 258 259 259 272 277 290 302 281 268 251 243 257 260 266 273 282 284 256 226 228 218 200 203 201
170 171 163 159 157 160 162 163 165 163 169 153 134 159 184 172 169 174 163 158 158 159 173 174 163 158 145 136 134 123 107 91 80 70 70 67 54 34 21 23 20 26 34 39 325 297 297 306 319 331 348 6 358 294 254 252 254 258 267 270 260 253 252 249 248 252 262 272 281 288 277 270 271 268 272 263 270 277 247 218 220 226 219 215 213
154 154 148 149 149 152 153 154 162 161 168 150 137 159 185 174 168 171 161 156 160 165 173 172 162 149 138 136 134 123 113 105 94 83 82 79 66 66 61 55 47 39 39 39 25 356 346 345 353 5 340 329 343 343 293 233 244 259 265 270 275 273 266 257 251 250 252 251 260 272 275 278 275 268 271 259 249 247 242 235 224 222 226 226 224
135 137 138 142 141 143 146 149 158 156 157 145 141 160 184 175 157 152 155 155 156 165 169 170 167 157 149 150 144 117 103 106 96 86 85 78 71 64 60 59 50 43 41 33 17 4 0 6 7 12 2 317 328 347 22 83 88 283 260 255 265 271 273 263 254 252 252 252 252 254 261 271 274 267 265 261 249 245 245 242 235 231 234 235 232
130 134 136 138 139 141 144 147 152 151 149 140 142 156 171 175 160 149 154 159 161 168 170 180 190 186 179 169 154 130 112 103 86 82 80 70 69 66 60 60 50 45 52 39 4 351 1 11 7 12 6 335 329 329 26 82 64 28 68 237 235 245 263 260 251 247 247 251 250 251 258 263 267 264 259 257 255 256 255 251 251 250 247 242 233
129 132 134 137 140 140 140 144 147 150 153 149 150 157 162 170 171 158 154 162 173 179 183 203 216 205 199 195 164 140 140 126 97 83 81 73 67 71 70 64 50 41 56 50 10 354 4 12 8 10 4 359 3 330 27 75 48 11 34 335 258 240 252 249 249 248 245 247 244 246 252 256 262 259 248 244 246 251 256 258 261 257 253 246 233
123 124 123 126 130 132 134 137 142 149 153 154 159 162 163 168 175 171 165 168 175 180 193 213 225 221 214 196 162 148 161 149 119 101 93 87 77 73 69 68 66 56 62 63 42 34 35 37 33 27 24 20 20 356 22 54 48 16 359 332 310 285 274 257 252 248 246 249 247 245 246 247 251 251 248 245 241 241 244 250 256 254 254 248 234
120 118 115 114 116 118 123 128 134 143 151 159 164 166 167 169 175 179 182 186 182 181 196 210 221 234 242 224 174 154 157 155 135 111 99 91 80 79 73 69 71 67 70 74 70 65 56 52 50 45 46 43 41 35 32 47 59 31 357 341 347 321 299 283 267 254 248 247 245 247 252 253 248 244 246 249 248 244 240 240 245 249 254 253 240
121 119 115 113 113 113 114 125 138 149 161 169 169 176 181 176 176 182 189 195 191 184 188 199 212 224 238 260 254 142 161 167 152 121 110 93 75 75 76 75 75 73 72 72 70 68 61 60 58 54 55 55 56 57 54 47 37 22 10 7 4 338 313 292 275 264 260 255 247 243 246 253 256 251 247 248 249 248 246 245 248 251 256 259 253
128 124 118 115 112 111 111 127 155 164 172 177 174 185 191 178 173 180 184 185 190 189 181 186 197 204 217 238 255 164 175 179 159 144 137 105 89 81 76 76 75 74 73 74 75 71 67 67 66 63 60 61 62 64 64 56 40 33 30 21 8 350 332 303 286 272 264 263 261 253 243 241 246 254 257 255 254 253 251 250 249 252 257 261 259
129 126 121 117 114 116 118 124 144 154 162 167 164 167 168 161 162 170 175 179 191 194 181 185 192 187 192 201 189 168 175 192 172 159 151 123 114 99 88 86 80 76 74 74 77 75 73 70 69 69 65 64 66 66 66 61 50 45 37 25 11 351 345 344 327 309 277 266 274 275 264 249 241 247 256 261 261 258 254 252 251 252 254 256 254
120 120 115 108 106 112 118 118 120 127 136 140 140 144 149 152 154 159 167 173 184 187 183 190 189 173 169 171 171 169 168 183 199 179 159 141 132 118 113 107 91 80 76 79 80 77 74 69 67 69 67 67 67 66 65 59 49 46 44 36 21 2 9 37 49 32 0 341 5 350 311 286 261 252 256 260 263 261 258 256 254 253 253 253 252
114 111 102 95 93 100 110 109 103 101 106 118 126 135 145 144 141 149 159 162 165 170 176 180 171 162 165 166 167 170 165 168 181 178 158 143 135 134 134 125 106 89 80 83 85 80 76 71 67 66 66 67 67 65 64 58 48 46 47 40 32 26 29 38 43 34 20 21 34 34 27 27 14 286 270 267 265 263 260 258 255 251 252 252 253
115 105 96 94 93 95 103 101 93 92 95 104 114 122 133 132 129 137 146 147 147 148 152 155 155 156 160 165 163 159 161 164 165 165 157 145 141 141 137 127 118 107 94 86 82 79 75 71 68 67 67 68 68 69 66 58 49 47 45 40 40 39 38 39 36 26 15 11 13 17 22 33 41 346 294 286 278 264 253 252 252 249 248 249 251
118 109 100 101 101 99 101 101 95 94 95 97 101 106 111 113 119 128 135 138 137 136 137 141 146 146 141 142 140 140 152 157 155 161 161 151 149 147 140 135 125 117 113 102 88 78 70 66 65 64 67 69 68 69 71 66 60 58 54 47 48 47 43 44 40 33 30 19 13 18 23 18 9 349 328 323 323 296 256 249 250 248 247 249 252
116 111 105 105 107 104 102 102 101 98 98 97 95 96 98 104 113 120 125 129 129 129 130 131 133 129 121 118 114 118 118 113 134 154 156 153 155 152 142 139 132 129 132 126 105 86 70 62 59 60 62 65 68 70 73 75 72 70 67 63 61 59 56 55 51 46 43 35 24 18 20 18 15 10 354 348 351 351 338 303 278 264 257 257 257
113 108 108 108 105 103 100 98 98 97 98 98 93 89 91 103 110 111 113 116 116 118 121 120 118 115 111 110 106 105 103 102 116 140 155 160 161 156 143 137 138 141 140 133 114 90 74 61 55 59 61 60 64 69 74 78 77 71 67 68 68 66 65 63 59 57 54 49 39 30 22 15 20 23 13 6 6 6 7 12 2 327 300 282 270
110 105 107 109 106 102 100 98 98 99 100 101 96 89 89 102 108 104 103 106 108 110 114 113 111 109 107 107 107 103 101 107 114 129 148 159 155 153 150 144 146 141 131 120 101 83 78 72 61 58 63 66 65 69 76 79 78 73 67 68 71 68 67 65 62 61 62 61 56 50 45 36 36 37 34 28 16 7 0 356 350 335 320 306 294
107 104 104 106 105 102 100 100 101 103 104 102 97 93 93 101 106 103 100 103 108 111 114 113 111 109 106 106 110 106 99 102 105 108 121 136 144 152 159 155 149 142 133 121 100 84 73 74 73 65 63 72 71 71 76 76 76 76 71 73 75 71 67 65 65 64 62 63 61 58 55 50 49 48 47 46 32 17 1 342 325 311 303 298 293
103 99 101 103 103 103 101 102 104 106 107 101 99 103 104 105 109 108 105 109 112 111 112 116 114 112 110 108 109 107 101 99 100 102 107 120 137 156 168 166 165 156 145 130 108 93 73 56 70 74 70 73 80 77 72 78 90 89 81 77 73 68 65 60 58 60 59 60 57 55 53 46 44 43 43 48 47 36 23 359 330 307 296 293 289
114 105 105 105 105 104 102 103 105 106 106 103 104 108 109 108 109 109 109 112 112 109 110 113 112 112 110 107 107 106 101 100 100 103 107 115 127 135 131 134 143 132 131 126 107 90 83 68 62 70 75 75 80 85 74 78 109 103 88 84 71 53 46 38 36 40 38 40 41 37 37 30 23 21 17 18 21 17 10 358 339 319 302 295 291
127 121 117 114 115 112 109 109 108 109 109 109 112 113 112 111 111 112 112 112 112 109 111 111 110 114 111 105 104 102 99 101 103 105 108 111 116 116 110 103 89 91 119 133 122 96 92 94 82 72 77 78 77 91 85 68 96 98 89 105 68 14 5 358 358 357 352 357 358 352 352 350 346 345 343 341 338 335 332 326 321 315 307 302 296
141 136 132 128 130 127 123 122 119 120 118 117 119 119 119 119 119 122 121 119 116 113 117 117 117 122 120 112 110 108 107 109 108 109 111 111 112 114 112 106 98 100 118 126 120 114 107 111 112 100 96 95 82 92 100 82 80 86 86 97 34 11 341 322 338 346 338 334 335 331 328 325 321 319 316 314 312 311 310 308 306 304 301 300 296
157 148 145 141 143 142 140 137 133 132 128 124 125 124 124 124 124 127 130 128 124 121 124 125 127 134 134 128 126 124 121 118 125 129 127 126 125 123 124 121 114 111 116 121 124 126 127 136 138 123 124 134 101 89 102 101 84 76 76 72 36 22 324 289 324 343 346 338 336 336 331 324 320 316 313 309 306 303 301 299 298 296 294 294 293
170 158 153 153 154 152 151 147 143 141 137 134 133 130 130 129 127 131 135 134 130 130 135 137 138 142 146 145 140 140 136 131 147 150 139 151 157 141 136 131 122 118 123 130 134 137 142 155 160 145 140 157 135 112 110 104 93 171 71 48 28 15 2 319 305 334 351 353 342 342 342 335 328 323 317 313 309 305 302 299 296 293 291 289 288
186 172 161 162 162 158 156 153 149 149 147 146 144 140 138 137 137 139 141 140 137 139 147 152 153 154 159 162 158 160 162 157 173 162 148 177 184 144 137 134 130 128 121 126 138 145 148 159 175 171 153 159 164 147 150 144 103 297 289 349 9 13 0 347 307 316 338 350 348 347 348 343 340 335 325 316 310 305 301 298 296 294 292 290 287
195 191 179 171 168 166 164 161 160 160 158 157 156 153 152 151 150 150 153 159 160 164 168 166 165 168 175 182 181 182 186 187 195 189 177 195 194 155 154 157 152 145 140 146 151 152 152 156 175 181 166 177 181 165 209 220 218 258 271 278 310 337 347 344 323 295 321 342 350 348 346 346 348 347 338 328 321 312 304 298 295 293 291 290 289
195 198 192 181 176 175 173 170 169 167 165 164 162 161 162 163 164 165 171 179 188 196 202 202 202 200 200 204 201 198 201 205 207 206 200 207 209 192 186 184 172 164 173 189 170 160 168 161 163 176 183 190 188 177 272 288 273 279 293 282 279 291 318 331 319 293 317 339 343 341 343 345 342 342 342 340 332 323 320 314 304 297 291 288 287
197 199 198 192 186 181 178 176 172 168 165 162 157 156 158 159 162 167 172 188 203 211 215 219 222 223 222 223 220 215 214 216 219 218 212 215 222 219 217 220 200 176 188 207 195 189 193 173 171 183 190 197 207 207 228 320 310 303 329 322 298 287 307 323 318 296 305 325 327 331 336 333 330 333 337 338 333 328 333 331 318 307 298 292 291
203 203 200 197 192 185 181 176 171 166 161 155 150 147 149 149 147 149 172 208 227 230 234 236 233 232 235 235 234 230 227 227 227 227 223 219 224 229 226 228 225 204 207 227 230 225 224 220 225 227 211 203 222 243 254 292 286 295 340 336 322 312 313 319 317 302 295 313 322 328 329 325 325 330 332 332 328 325 330 331 320 312 308 305 303
211 211 205 199 191 185 179 173 169 164 158 156 155 151 144 136 112 66 30 342 304 275 258 253 247 245 247 246 245 243 240 238 237 237 234 224 222 228 223 218 220 218 221 231 238 246 253 260 270 274 269 261 257 278 295 306 312 323 339 334 321 316 315 316 314 305 295 308 321 328 328 323 319 321 323 322 316 310 319 328 324 314 313 313 309
207 209 205 197 188 183 179 172 172 174 173 176 180 175 163 149 120 48 22 351 317 302 287 273 262 257 258 257 254 250 243 241 242 242 239 232 231 236 231 218 214 222 234 235 236 248 259 266 272 274 278 283 286 294 300 308 327 329 328 324 318 316 314 312 312 309 299 304 316 323 324 318 307 306 309 308 298 296 310 325 316 300 306 308 306
204 202 199 193 186 184 181 176 179 187 191 196 203 203 195 183 194 342 359 345 314 303 293 284 276 268 265 262 256 257 259 260 260 255 246 240 240 245 244 228 216 222 236 239 242 251 259 269 276 274 280 293 299 300 299 302 320 323 324 324 319 317 315 310 312 314 310 310 316 318 319 314 304 300 301 298 292 292 301 302 281 288 301 302 298
204 198 195 194 191 189 188 185 188 196 201 206 211 212 209 209 236 274 306 317 301 292 282 279 280 277 273 266 258 267 274 275 272 268 261 252 245 244 242 233 228 231 234 237 243 249 255 267 275 272 275 287 284 277 288 300 315 318 322 323 317 315 315 312 311 312 316 323 320 313 312 310 301 296 296 294 292 288 282 279 286 297 306 304 295
201 201 201 201 197 196 198 199 202 210 220 227 225 220 218 221 229 243 267 279 272 275 277 276 278 279 278 274 266 268 270 267 269 271 272 268 254 242 235 230 230 233 233 231 232 238 254 266 272 272 272 282 282 278 285 310 322 317 313 314 314 312 308 306 305 304 310 318 315 307 305 307 302 295 291 290 290 285 280 286 296 304 310 309 299
208 210 210 206 202 204 209 214 220 225 236 245 243 234 232 231 226 226 236 239 238 251 258 260 266 269 274 278 270 263 263 268 272 264 263 267 259 242 230 226 227 230 229 228 225 227 242 259 274 277 271 279 292 289 273 291 311 313 309 311 313 307 301 300 299 299 302 304 302 297 297 301 303 298 292 291 291 284 283 290 294 297 303 309 302
213 209 208 206 207 214 219 223 228 230 234 245 248 237 230 227 219 213 218 220 220 229 232 231 233 230 230 236 225 208 232 266 255 220 208 242 256 246 227 218 220 222 223 223 222 227 239 254 279 288 277 275 291 290 274 284 296 301 302 307 307 301 296 294 292 291 293 291 285 284 290 297 303 300 293 292 291 285 284 288 288 290 298 305 301
218 213 211 212 217 226 228 225 229 232 232 237 238 226 216 211 205 201 203 201 195 194 195 195 188 178 174 156 130 116 124 226 243 229 192 183 210 212 188 181 184 190 198 206 210 217 226 235 259 273 253 258 265 259 269 283 288 290 294 296 294 290 288 288 287 286 288 286 275 268 279 292 301 298 293 291 290 287 286 287 288 290 293 298 299
227 224 223 223 225 229 230 227 228 229 228 230 226 212 201 196 190 187 185 179 173 169 163 157 149 145 140 124 107 103 106 122 175 156 151 151 152 152 152 152 155 173 196 209 217 227 237 242 246 248 253 264 269 268 273 279 280 284 291 290 286 284 284 286 289 289 290 290 278 268 277 288 295 294 292 291 288 287 287 287 287 286 284 289 296
230 230 229 229 228 228 230 231 228 225 225 224 216 203 193 186 178 175 175 170 163 159 151 144 143 150 150 137 117 108 112 110 97 100 113 125 138 147 151 152 150 164 200 221 232 244 253 256 258 261 267 275 279 280 283 284 282 284 288 288 289 290 289 289 291 291 292 292 286 278 277 282 290 292 292 292 288 285 285 285 285 283 282 287 293
232 234 236 234 231 229 229 230 227 225 224 216 205 196 188 180 172 172 173 165 158 154 148 142 140 145 149 143 129 124 129 122 110 102 106 115 133 148 153 160 159 158 187 223 245 260 267 274 279 281 285 289 291 291 290 288 287 288 284 282 287 291 288 286 289 292 293 291 290 283 276 280 289 293 294 295 291 284 282 284 284 285 288 292 294
238 244 244 241 236 230 229 232 228 215 205 199 196 192 184 175 171 173 172 163 159 159 154 146 137 133 138 142 136 129 128 127 123 121 121 123 136 158 169 191 198 177 167 183 212 243 266 282 288 291 295 296 296 294 287 285 292 296 285 275 278 284 284 285 290 292 291 290 296 298 284 286 292 295 296 298 294 289 288 286 283 285 290 293 292